Sparrow (43881 NORAD) Tracking and Keplerian Element Data

This shows tracking and keplerian element data for the satellite.

Feedback or suggestion? Click here.




ElementValue
Catalog43881
NameSparrow
Epoch Orbit1995
Epoch Day142.94247383
Epoch Year2019
RAAN51.4244
Inclination97.7208
Eccentricity0.0013832
Argument of Perigee111.1531
Mean Anonmoly249.117
Mean Motion14.96254514
Decay Rate2.58E-06
L11 43881U 18111F 19142.94247383 .00000258 00000-0 27906-4 0 9996
L22 43881 97.7208 51.4244 0013832 111.1531 249.1170 14.96254514 19958

Live tracking and technical data element details for Sparrow (NORAD 43881). Sparrow can be tracked NOW for your location showing map with azimuth and elevation plus other details from your city location.

Track the satellite on the map from your city or location and see movement details for azimuth, elevation, latitude, longitude, range, height, and movement on the map or in text.







IsCatalogInMostPopularTable: catalog: 43881, numindb: 65
Update: records affected: 1



GetName: 43881 Sparrow

Hit Count: updated at: Sun, 26 May 2019 08:53:11 GMT